Location: Amsterdam
(30.7274°N, 84.4357°W)
Time: 17:31:19
(UTC+00:00)

Injun/Solrad 3 - Pass Details

Date: 18 February 2026
Orbit: 871 x 985 km, 66.8° (Epoch: 11 March)

Event Time Altitude Azimuth Distance (km) Brightness Sun altitude
Rises 02:50:36 0° 328° (NNW) 3,603 11.4 -44.1°
Reaches altitude 10° 02:53:11 10° 323° (NW) 2,672 10.7 -44.6°
Enters shadow 02:54:07 15° 320° (NW) 2,346 10.4 -44.8°
Maximum altitude 02:59:10 50° 250° (WSW) 1,207 - -45.9°
Drops below altitude 10° 03:05:17 10° 176° (S) 2,717 - -47.1°
Sets 03:07:56 0° 171° (S) 3,668 - -47.7°
